Wind_Speed
25 25 26 25 24 23 23 23 23 22 21 19 19 19 19 19 19 19 18 17 17 17 17 17 16 16 16 15 15 16 16 16 16 16 17 17 16 16 16 16 17 18 19 19
28 27 28 27 25 24 25 24 24 24 22 21 20 21 20 19 19 18 18 18 17 17 17 17 17 17 17 16 17 17 18 18 18 18 18 18 18 17 17 18 18 19 20 21
31 30 29 29 26 25 25 23 24 24 23 23 22 22 21 20 20 20 20 20 20 18 19 19 19 19 18 18 18 18 18 19 19 19 19 18 18 18 19 20 20 21 21 22
32 32 33 29 27 27 25 24 24 24 23 23 23 23 22 21 21 21 21 21 21 21 22 21 21 20 20 20 20 20 20 19 20 20 19 19 19 20 21 22 23 23 23 23
32 33 33 29 27 26 26 26 25 25 24 23 23 23 23 23 23 23 23 22 22 22 22 22 23 23 22 23 23 22 21 20 20 21 21 21 21 22 23 24 24 24 24 24
33 34 33 30 29 28 27 28 27 27 26 25 24 24 24 24 24 24 23 23 22 23 24 24 23 24 24 23 23 23 23 22 21 21 22 23 23 24 24 25 25 26 26 25
33 34 33 30 29 28 29 28 28 28 28 28 27 27 26 25 26 24 23 23 23 24 24 24 24 24 24 24 23 24 23 23 22 22 23 24 25 25 25 26 26 25 25 26
34 34 33 29 29 30 29 28 28 27 28 28 29 28 27 27 26 26 26 25 25 25 26 24 24 25 25 25 26 25 25 24 24 24 25 25 25 26 26 26 26 26 27 27
34 34 32 31 31 32 31 31 30 29 29 29 28 27 27 28 28 28 29 28 27 27 26 26 26 26 27 27 27 27 27 27 27 27 27 27 27 27 28 28 28 28 28 29
34 34 32 31 31 31 31 30 30 29 29 29 27 27 27 28 28 29 29 28 29 29 29 29 29 28 29 29 29 28 28 28 28 28 28 28 29 29 29 29 29 29 29 29
33 33 33 32 31 31 30 30 30 29 28 28 29 29 30 30 30 30 30 30 31 31 31 30 30 30 29 29 29 29 28 29 29 29 29 29 29 29 29 29 29 29 29 29
34 34 34 32 32 32 31 31 31 31 30 29 29 30 31 31 32 32 32 32 32 32 31 31 30 30 30 30 30 29 29 29 29 29 29 29 29 29 29 29 28 28 28 28
33 34 35 34 33 33 32 31 31 31 30 30 30 31 32 33 33 33 33 33 33 33 32 32 32 32 31 31 31 30 30 30 30 30 30 29 29 29 28 28 28 28 28 28
34 34 34 34 35 35 34 33 32 31 30 30 30 31 32 33 33 33 33 33 34 34 34 34 34 33 32 32 31 31 31 30 29 29 28 28 28 28 28 28 27 27 28 27
34 35 35 34 34 33 32 32 32 30 30 31 31 31 32 33 33 34 34 34 34 34 34 34 33 32 32 31 31 31 30 29 29 29 28 28 28 28 27 27 26 26 26 26
34 34 35 35 35 33 33 33 32 30 31 31 31 31 32 32 34 34 35 34 34 33 33 33 32 31 31 31 30 29 28 28 28 28 27 27 27 27 26 26 26 26 26 26
33 33 34 34 34 33 33 34 32 31 31 31 31 31 32 32 33 33 33 33 33 33 33 32 32 31 31 30 30 29 28 28 28 28 28 28 27 26 26 26 26 26 26 26
32 31 32 33 33 32 32 32 31 31 30 30 30 31 31 32 32 31 31 32 31 31 31 31 31 31 31 30 30 30 29 29 29 28 27 26 26 26 26 26 26 26 25 25
28 29 29 30 31 31 32 32 30 29 29 29 29 29 29 29 29 29 29 30 30 30 30 31 31 30 29 28 28 29 29 29 29 28 27 26 26 26 26 26 26 26 26 26
29 28 28 29 29 28 29 29 28 27 26 27 27 28 28 28 28 28 28 29 28 28 28 29 29 28 28 27 28 28 29 28 28 27 27 26 26 26 26 26 26 26 26 26
27 27 26 26 27 27 27 26 26 26 26 27 27 27 28 28 28 28 28 27 27 27 27 28 28 28 28 28 28 28 28 28 27 27 27 27 27 26 26 26 26 26 26 26
24 26 26 26 26 26 25 25 25 25 25 25 26 26 27 27 27 27 27 27 27 27 27 27 27 28 28 29 29 28 28 28 27 27 27 27 27 26 25 26 26 27 26 26
21 22 23 24 24 24 24 24 24 24 24 24 25 25 26 27 27 27 27 26 27 27 27 27 27 27 27 27 27 27 26 27 27 27 27 27 27 26 26 26 26 26 26 26
19 20 21 22 22 23 24 24 25 24 24 24 24 25 25 26 26 26 27 27 26 26 26 26 26 25 25 25 25 25 25 25 26 26 26 26 26 25 25 26 26 25 25 25
17 19 20 21 22 22 22 23 23 23 23 23 23 24 25 25 25 25 25 26 25 25 25 25 24 24 24 24 23 24 24 24 24 24 24 24 24 24 24 24 24 24 24 24
17 17 18 20 21 21 21 20 21 22 22 22 22 22 22 22 22 23 23 24 24 23 23 23 22 22 22 22 22 23 23 24 24 24 24 24 23 23 23 23 24 24 24 24
15 16 17 18 18 18 18 18 18 19 19 20 20 20 20 21 22 22 22 22 22 21 21 21 22 21 21 22 22 22 21 22 22 22 22 22 22 23 23 23 23 23 24 25
Wind_Direction
242 238 236 239 243 244 248 253 258 260 261 263 269 274 279 278 281 286 287 289 294 296 296 295 294 293 292 292 291 289 287 285 285 286 284 282 280 280 283 285 287 290 290 292
242 241 239 238 241 245 247 250 254 256 258 262 267 269 272 273 277 282 284 288 290 291 294 296 293 289 289 288 289 289 287 286 285 285 283 281 281 280 281 284 287 290 291 291
240 241 243 240 240 244 247 250 249 253 256 260 263 266 269 273 275 280 281 285 288 286 288 292 293 292 288 285 288 288 288 287 286 286 286 282 283 284 286 287 288 290 291 290
239 241 242 243 241 244 246 247 249 253 255 256 261 266 271 273 276 278 279 281 284 285 286 286 288 290 288 286 286 286 286 287 286 284 283 284 284 284 286 288 289 289 288 289
238 241 244 241 241 244 245 246 248 248 252 258 264 268 269 271 274 276 279 281 284 285 284 284 284 286 285 287 285 284 283 284 284 282 282 283 283 284 286 288 289 289 287 289
241 244 244 242 243 245 246 248 246 247 253 257 260 263 267 271 274 275 276 278 281 283 285 285 285 284 285 284 282 282 281 280 282 282 281 284 285 285 287 287 288 288 287 288
242 246 248 246 245 246 248 250 250 251 255 258 260 267 270 273 272 272 273 275 277 280 283 284 284 283 282 283 282 284 284 283 282 282 281 283 285 286 286 286 287 288 288 288
241 244 247 247 246 246 250 251 252 254 256 258 261 265 268 270 272 274 275 275 277 280 281 283 283 283 285 283 283 284 284 283 283 283 280 281 284 286 287 287 287 287 287 288
241 244 246 247 248 248 248 251 252 251 254 257 258 262 265 268 271 274 276 276 278 279 279 282 284 284 284 284 284 283 283 282 283 282 281 281 282 284 285 287 288 287 287 287
242 244 248 249 250 251 249 250 251 254 258 259 260 263 265 267 269 272 274 275 277 280 280 282 283 284 284 283 283 283 282 281 281 282 283 284 283 286 286 286 286 286 286 287
242 245 246 249 250 252 253 253 255 256 258 262 265 267 268 268 269 272 274 276 277 279 280 280 281 281 282 283 283 282 281 279 280 281 283 284 285 286 286 285 285 285 286 287
241 243 246 248 250 251 253 254 257 258 260 263 265 267 269 269 269 271 275 277 278 279 280 279 279 280 279 280 281 281 280 280 280 280 282 284 285 285 285 286 286 287 287 287
241 243 246 248 250 252 252 253 255 257 260 262 265 267 268 270 271 272 274 275 277 278 279 279 278 278 277 278 279 279 279 280 279 279 280 282 284 285 286 286 287 288 288 288
242 243 247 249 252 253 255 255 254 255 258 260 263 266 268 270 271 273 274 275 276 276 276 277 277 276 277 277 277 277 277 277 277 278 279 282 284 287 287 287 287 287 287 288
243 244 247 250 253 255 255 253 252 254 256 257 259 264 267 270 272 274 274 275 276 275 275 276 276 275 275 275 275 275 275 275 276 278 280 282 285 287 286 286 287 287 287 286
244 246 247 250 252 254 254 255 253 255 256 258 262 264 267 270 271 274 274 274 275 276 276 277 274 273 274 275 273 273 274 275 276 278 279 281 283 285 286 286 286 286 286 287
244 246 248 250 253 253 253 253 254 257 260 262 264 266 269 271 273 274 273 274 274 276 276 276 276 275 276 276 273 272 272 275 276 277 279 280 282 284 285 286 287 287 287 287
244 245 245 247 249 251 255 257 256 258 262 263 265 268 270 271 273 273 273 273 274 274 275 275 277 276 274 274 273 272 272 273 275 276 277 279 281 283 285 286 287 287 287 287
244 244 245 245 247 250 253 256 259 261 261 262 265 267 270 273 274 274 274 274 274 275 276 276 277 276 273 273 273 272 271 273 274 275 276 277 280 282 285 286 287 287 288 289
247 246 244 244 246 250 253 255 255 258 260 262 265 269 271 273 274 274 275 275 275 275 277 277 276 275 274 273 273 273 272 273 274 274 275 277 280 282 284 285 287 288 289 290
246 244 244 247 250 253 256 257 258 259 262 265 268 271 272 272 272 274 276 276 276 275 277 277 277 276 274 273 273 274 274 275 275 274 275 277 279 281 283 285 286 288 289 289
246 247 247 248 251 255 257 260 261 261 263 266 268 268 270 271 272 274 275 276 276 276 277 278 278 277 275 275 274 273 273 275 276 276 277 278 279 280 282 284 285 286 287 288
247 247 249 251 253 254 256 260 264 265 265 265 266 267 269 271 273 274 275 277 277 277 278 278 277 276 276 276 276 275 274 274 274 276 276 276 277 278 279 281 282 285 286 287
249 250 251 253 254 256 258 263 266 268 269 269 269 269 270 271 272 273 274 275 277 278 279 278 277 276 276 276 275 274 273 273 275 277 276 275 276 276 277 279 281 283 285 286
252 253 253 253 254 256 259 262 264 266 268 269 272 274 273 272 273 274 274 275 277 279 279 279 277 276 277 276 275 274 274 275 276 277 277 276 276 276 277 279 280 283 285 286
256 257 255 255 256 260 262 263 264 266 268 269 271 275 276 275 275 277 277 278 278 279 279 278 276 275 274 275 275 274 275 277 277 276 275 276 276 276 278 280 282 283 285 287
255 255 254 253 254 259 262 264 268 269 269 270 273 277 279 279 279 279 279 279 279 280 281 280 278 275 274 275 275 274 275 276 276 276 276 277 277 276 278 282 283 284 285 287
Height
5863 5866 5868 5869 5871 5873 5874 5875 5876 5877 5877 5879 5879 5879 5879 5880 5880 5880 5880 5880 5880 5879 5879 5878 5878 5876 5875 5874 5874 5873 5872 5870 5869 5867 5866 5865 5864 5864 5863 5862 5861 5859 5858 5857
5857 5859 5861 5863 5865 5866 5868 5869 5870 5871 5872 5873 5873 5874 5874 5875 5876 5876 5876 5876 5875 5875 5875 5874 5873 5872 5871 5870 5869 5867 5866 5865 5864 5862 5861 5860 5859 5858 5857 5856 5855 5854 5852 5851
5850 5852 5854 5856 5859 5861 5862 5863 5864 5865 5867 5868 5868 5868 5869 5870 5870 5870 5870 5870 5870 5870 5869 5869 5867 5866 5865 5864 5863 5862 5861 5859 5858 5857 5856 5855 5854 5853 5852 5850 5849 5848 5846 5845
5842 5846 5846 5852 5853 5854 5855 5857 5858 5859 5860 5862 5863 5864 5864 5864 5864 5864 5864 5863 5863 5863 5863 5862 5862 5861 5860 5859 5858 5857 5855 5854 5853 5851 5850 5850 5849 5848 5846 5845 5843 5841 5840 5838
5834 5836 5839 5844 5846 5847 5849 5850 5852 5853 5854 5856 5856 5857 5858 5858 5858 5858 5857 5856 5856 5857 5857 5856 5856 5855 5853 5852 5851 5850 5849 5848 5847 5846 5844 5844 5843 5841 5840 5838 5837 5835 5833 5831
5826 5828 5831 5837 5839 5840 5843 5843 5846 5846 5848 5849 5850 5851 5852 5852 5852 5852 5851 5850 5850 5850 5850 5850 5849 5848 5847 5845 5845 5844 5843 5841 5840 5839 5838 5837 5836 5834 5833 5831 5829 5827 5826 5824
5819 5821 5824 5828 5831 5833 5835 5837 5839 5839 5841 5842 5843 5844 5845 5845 5845 5844 5844 5844 5844 5844 5844 5843 5842 5841 5840 5838 5838 5837 5836 5835 5833 5832 5831 5830 5828 5827 5825 5823 5822 5820 5818 5817
5811 5813 5818 5821 5823 5826 5827 5829 5831 5832 5833 5835 5836 5837 5837 5838 5838 5837 5838 5837 5837 5837 5836 5835 5834 5833 5832 5831 5830 5829 5828 5827 5826 5825 5824 5822 5821 5819 5817 5816 5814 5812 5811 5809
5804 5807 5810 5813 5815 5817 5819 5821 5823 5825 5826 5827 5828 5829 5830 5830 5831 5831 5830 5830 5829 5829 5828 5827 5827 5825 5824 5823 5822 5821 5820 5819 5818 5817 5816 5814 5812 5811 5809 5807 5806 5804 5802 5800
5795 5798 5801 5804 5806 5808 5810 5812 5814 5816 5818 5819 5820 5821 5822 5823 5823 5823 5823 5822 5821 5821 5820 5819 5818 5817 5816 5815 5813 5812 5811 5811 5810 5809 5807 5805 5804 5802 5801 5799 5797 5795 5793 5791
5787 5790 5793 5796 5798 5800 5802 5804 5806 5808 5810 5811 5812 5813 5814 5815 5815 5815 5814 5814 5813 5812 5811 5809 5808 5807 5806 5805 5804 5803 5802 5801 5801 5799 5798 5796 5795 5793 5792 5790 5788 5786 5784 5783
5779 5783 5785 5788 5790 5792 5794 5797 5798 5800 5801 5802 5803 5804 5805 5805 5806 5806 5805 5804 5803 5803 5802 5800 5799 5798 5798 5797 5795 5793 5793 5792 5791 5790 5789 5787 5786 5785 5783 5781 5779 5777 5775 5774
5771 5774 5777 5779 5782 5784 5786 5789 5790 5791 5793 5794 5795 5795 5796 5796 5796 5796 5796 5795 5794 5794 5792 5791 5790 5789 5788 5787 5786 5785 5784 5783 5782 5781 5780 5779 5777 5776 5774 5772 5770 5769 5767 5765
5763 5766 5768 5771 5773 5775 5777 5779 5781 5783 5784 5785 5786 5786 5786 5786 5786 5786 5786 5785 5785 5784 5783 5782 5781 5779 5778 5777 5777 5776 5775 5774 5773 5772 5771 5770 5768 5767 5765 5763 5762 5760 5758 5756
5755 5757 5760 5762 5764 5765 5767 5770 5772 5773 5775 5776 5777 5777 5777 5778 5777 5777 5776 5775 5774 5774 5772 5771 5770 5769 5768 5768 5767 5766 5766 5765 5764 5763 5762 5761 5760 5758 5757 5755 5753 5752 5750 5749
5746 5749 5751 5753 5755 5757 5759 5761 5762 5764 5765 5767 5768 5768 5769 5769 5768 5768 5766 5765 5765 5764 5762 5760 5759 5758 5758 5758 5758 5757 5757 5756 5756 5755 5754 5753 5752 5750 5749 5747 5746 5744 5742 5740
5737 5739 5742 5744 5746 5748 5749 5751 5753 5754 5756 5757 5758 5759 5759 5759 5759 5758 5757 5756 5755 5754 5753 5751 5750 5749 5749 5749 5748 5748 5748 5747 5747 5746 5745 5744 5743 5742 5740 5739 5737 5736 5734 5732
5728 5731 5733 5735 5736 5738 5740 5741 5743 5745 5746 5748 5748 5749 5749 5749 5749 5748 5747 5746 5745 5744 5743 5742 5741 5740 5740 5739 5739 5739 5738 5738 5738 5737 5737 5736 5735 5733 5732 5730 5729 5727 5725 5723
5720 5721 5724 5725 5728 5730 5731 5733 5734 5735 5737 5738 5739 5739 5740 5740 5739 5739 5738 5737 5736 5735 5734 5733 5732 5731 5731 5730 5730 5730 5729 5729 5729 5728 5728 5727 5726 5725 5724 5722 5720 5719 5717 5715
5712 5714 5715 5718 5720 5721 5723 5724 5725 5727 5727 5729 5730 5731 5731 5731 5730 5729 5729 5728 5727 5726 5725 5724 5723 5722 5722 5721 5721 5721 5720 5720 5720 5719 5719 5718 5718 5716 5715 5714 5712 5711 5709 5707
5706 5708 5709 5711 5713 5714 5715 5716 5717 5718 5719 5720 5721 5722 5722 5722 5721 5721 5720 5719 5718 5717 5716 5715 5714 5713 5713 5712 5712 5712 5711 5711 5711 5710 5710 5709 5709 5708 5707 5705 5704 5702 5701 5699
5699 5701 5703 5705 5706 5708 5709 5709 5710 5711 5712 5713 5713 5713 5713 5713 5713 5712 5711 5710 5710 5708 5707 5706 5705 5704 5703 5703 5703 5703 5702 5702 5702 5702 5701 5700 5700 5699 5698 5697 5696 5694 5692 5691
5693 5695 5697 5698 5700 5701 5703 5703 5704 5704 5705 5705 5705 5705 5705 5705 5704 5703 5703 5702 5701 5700 5699 5697 5697 5696 5695 5694 5694 5693 5693 5693 5693 5693 5692 5692 5691 5690 5689 5688 5687 5685 5684 5682
5688 5689 5691 5692 5694 5695 5696 5697 5697 5697 5698 5698 5698 5697 5697 5697 5696 5695 5694 5694 5693 5691 5690 5689 5688 5687 5686 5685 5685 5685 5685 5685 5684 5684 5682 5682 5681 5681 5680 5679 5678 5677 5675 5673
5682 5684 5685 5686 5688 5689 5689 5690 5690 5690 5690 5690 5690 5690 5689 5689 5688 5687 5686 5685 5684 5683 5682 5681 5680 5679 5678 5677 5677 5677 5676 5676 5676 5675 5674 5674 5673 5673 5672 5670 5669 5668 5667 5665
5677 5678 5679 5680 5682 5682 5683 5683 5683 5683 5683 5683 5683 5682 5682 5681 5680 5679 5678 5677 5676 5675 5674 5673 5673 5672 5671 5670 5670 5669 5668 5668 5667 5667 5666 5666 5665 5664 5663 5662 5661 5660 5658 5657
5672 5673 5674 5675 5675 5676 5676 5676 5676 5676 5676 5676 5676 5675 5675 5674 5673 5672 5671 5670 5669 5668 5667 5666 5665 5664 5664 5663 5662 5662 5661 5660 5660 5659 5659 5658 5657 5656 5655 5654 5653 5652 5650 5648